User: anonymous   Login
Location: Unspecified
(0.0000°N, 0.0000°E)
Time: 07:20:41
(UTC+00:00)
Language:

ESTCUBE 1 - Orbit

View from above orbital plane
View from above orbital plane
View from above satellite
View from above satellite

Ground track
Ground track

The orbit data is extracted from the following two-line orbital elements,

1 39161U 13021C   19083.20059077  .00000091  00000-0  22336-4 0  9998
2 39161  97.9912 169.5860 0008247 239.3833 120.6598 14.72170505315648
Epoch (UTC): 24 March 2019 04:48:51
Eccentricity: 0.0008247
inclination: 97.9912°
perigee height: 648 km
apogee height: 660 km
right ascension of ascending node: 169.5860°
argument of perigee: 239.3833°
revolutions per day: 14.72170505
mean anomaly at epoch: 120.6598°
orbit number at epoch: 31564

The dashed part of the orbit path shows where the satellite is in the earth's shadow,  

DLR